Home   Weather   Yverdon-les-Bains   Past weeks

Flag for Switzerland Past Weather in Yverdon-les-Bains, Vaud, Switzerland — Yesterday and Last 2 Weeks

Now
55 °F

Cool.


Feels Like: 55 °F
Forecast: 46 / 72 °F
Wind: 3 mph from Southwest

Location: Payerne

Current Time: Sep 28, 2016 at 10:47:42 AM

Latest Report: Sep 28, 2016 at 10:00 AM


Visibility: N/A

Pressure: 30.47 "Hg

Humidity: 92%

Dew Point: 52 °F

Location of Yverdon-les-BainsLocation

Past Weather in Yverdon-les-Bains — Graph

°F

Yverdon-les-Bains Temperature Yesterday

Maximum temperature yesterday: 69 °F (at 5:00 PM)
Minimum temperature yesterday: 53 °F (at 11:00 PM)
Average temperature yesterday: 59 °F

High & Low Weather Summary for the Past Weeks

 TemperatureHumidityPressure
High81 °F (Sep 13, 4:00 PM)97% (Sep 21, 7:00 AM)30.48 "Hg (Sep 21, 7:00 AM)
Low44 °F (Sep 22, 8:00 AM)35% (Sep 25, 4:00 PM)29.78 "Hg (Sep 14, 5:00 PM)
Average59 °F83%30.08 "Hg
* Reported Sep 13 9:00 AM — Sep 28 9:00 AM, Yverdon-les-Bains, Weather by CustomWeather, © 2016

Note: Actual official high and low records may vary slightly from our data, if they occured in-between our weather recording intervals... More about our weather records

Advertising

Yverdon-les-Bains Weather History for the Previous 24 Hours

Scroll right to see more
 ConditionsComfort  
Time TempWeatherWind HumidityBarometerVisibility
9:00 AM
Wed, Sep 28
51 °FCool.1 mph94%30.48 "HgN/A
8:00 AM49 °FFog.2 mph96%30.47 "Hg2 mi
7:00 AM48 °FCool.3 mph95%30.45 "HgN/A
6:00 AM49 °FCool.3 mph96%30.45 "HgN/A
5:00 AM49 °FCool.1 mph97%30.43 "HgN/A
4:00 AM48 °FCool.2 mph97%30.43 "HgN/A
3:00 AM50 °FCool.1 mph96%30.43 "HgN/A
2:00 AM51 °FFog.2 mph96%30.41 "Hg4 mi
1:00 AM52 °FCool.2 mph94%30.40 "HgN/A
12:00 AM52 °FCool.1 mph95%30.39 "HgN/A
11:00 PM
Tue, Sep 27
53 °FFog.No wind94%30.37 "Hg9 mi
10:00 PM54 °FCool.No wind94%30.37 "HgN/A
9:00 PM56 °FCool.1 mph90%30.34 "HgN/A
8:00 PM60 °FPassing clouds.2 mph81%30.32 "Hg11 mi
7:00 PM63 °FMild.1 mph75%30.29 "HgN/A
6:00 PM68 °FMild.5 mph61%30.25 "HgN/A
5:00 PM69 °FMild.5 mph60%30.24 "HgN/A
4:00 PM68 °FMild.6 mph61%30.24 "HgN/A
3:00 PM68 °FMild.7 mph61%30.24 "HgN/A
2:00 PM67 °FScattered clouds.5 mph67%30.25 "Hg4 mi
1:00 PM66 °FMild.5 mph71%30.25 "HgN/A
12:00 PM62 °FCool.5 mph84%30.27 "HgN/A
11:00 AM60 °FFog.2 mph86%30.27 "Hg2 mi
10:00 AM58 °FCool.No wind90%30.28 "HgN/A
Weather by CustomWeather, © 2016

See weather overviewHow to use our weather pages